Location: Engelmannsreuth
(49.8125°N, 11.6497°E)
Time: 03:37:09
(UTC+00:00)

Daily predictions for brighter satellites

Satellite Brightness Start Highest point End
(mag) Time Altitude Azimuth Time Altitude Azimuth Time Altitude Azimuth
Cosmos 2237 Rocket 3.9 02:21:12 29° ENE 02:21:12 29° ENE 02:24:09 10° NE
ATLAS 2AS CENTAUR R/B 4.2 02:23:04 31° NNW 02:23:23 31° N 02:30:04 10° NE
Cosmos 2219 Rocket 3.9 02:33:02 27° NNE 02:33:02 27° NNE 02:35:30 10° NNE
Cosmos 2360 Rocket 4.3 02:44:16 18° N 02:44:16 18° N 02:46:08 10° NNE
COSMOS 2428 4.2 02:46:26 30° NNE 02:46:26 30° NNE 02:49:19 10° NNE
NOSS 3-1 (C) 4.1 02:49:15 67° SSE 02:49:15 67° SSE 02:56:29 10° SE
Cosmos 1943 Rocket 3.8 02:49:41 20° N 02:52:20 30° NE 02:57:08 10° ESE
Lacrosse 5 3.1 02:59:21 38° ENE 02:59:21 38° ENE 03:02:49 10° E
SL-16 R/B 3.4 02:59:40 34° SE 03:00:37 36° ESE 03:05:47 10° NE
CZ-2C R/B 3.6 03:02:31 10° NNE 03:07:27 42° E 03:08:22 38° ESE
Cosmos 1980 4.3 03:09:29 51° NNE 03:09:29 51° NNE 03:13:43 10° NNE
SL-16 R/B 4.5 03:11:43 13° NNW 03:11:43 13° NNW 03:13:18 10° N
Cosmos 2369 Rocket 3.7 03:08:02 13° NNW 03:12:39 34° NE 03:17:48 10° ESE
USA 215 3.4 03:13:04 10° ENE 03:19:30 60° NNW 03:19:59 58° NW
NOSS 0 Rocket 4.1 03:24:36 57° NNW 03:24:36 57° NNW 03:30:06 10° NNE
CZ-4C R/B 2.4 03:29:40 61° NNW 03:29:40 61° NNW 03:35:27 10° NE
Cosmos 2333 Rocket 3.6 03:31:49 27° NNW 03:31:49 27° NNW 03:35:23 10° NNE
USA 229 DEB 4.1 03:35:49 49° SSW 03:35:49 49° SSW 03:42:07 10° SSE
USA 229 4.1 03:35:52 50° SSW 03:35:52 50° SSW 03:42:13 10° SSE
ALOS 4.4 03:37:13 10° NE 03:41:05 25° E 03:44:56 10° SSE
CZ-4B R/B 4.2 03:37:50 10° NNE 03:41:17 34° E 03:42:15 29° SE
NOSS 3-1 (A) 3.9 03:39:16 45° WNW 03:41:51 68° SW 03:50:20 10° SSE
ATLAS CENTAUR R/B 1.8 03:43:09 69° ESE 03:43:09 69° ESE 03:47:30 10° NE
ADEOS II 4.4 03:40:34 10° NNW 03:41:04 12° NNW 03:41:04 12° NNW
H-2A R/B 3.4 03:41:37 10° NNE 03:45:53 50° E 03:48:34 21° SSE
MSX 3.8 03:45:41 10° N 03:51:19 59° WNW 03:51:32 59° W
Cosmos 1934 Rocket 3.9 03:45:42 10° NNW 03:51:53 62° W 03:58:07 10° S
IDEFIX/ARIANE 42P 3.6 03:47:12 10° N 03:50:26 31° NNW 03:50:26 31° NNW
Cosmos 1992 Rocket 3.9 03:55:39 66° WSW 03:55:39 66° WSW 04:00:43 10° S
Cosmos 1356 Rocket 3.4 03:58:21 67° SSE 03:58:45 75° E 04:02:52 10° NNE
Cosmos 2237 Rocket 2.7 04:03:02 39° NW 04:03:02 39° NW 04:08:16 10° NNE
Cosmos 2251 Rocket 3.4 04:01:12 42° SSW 04:03:02 86° WNW 04:08:22 10° NNE
Cosmos 1455 4.3 04:06:38 17° N 04:06:38 17° N 04:07:39 10° N
COSMO-SKYMED 1 2.9 04:01:51 10° SSE 04:06:08 64° ENE 04:10:28 10° N
BREEZE M DEB (TANK) 2.6 04:06:13 88° SE 04:06:13 88° SE 04:12:02 10° E
Aureole 2 Rocket 4.0 04:05:17 23° NNE 04:06:12 28° ENE 04:08:56 10° ESE
Meteor 1-31 Rocket 2.6 04:04:15 10° NNE 04:08:05 88° ESE 04:08:25 73° S
Spot 2 4.1 04:05:19 10° N 04:08:48 55° NW 04:08:48 55° NW
Cosmos 921 Rocket 4.3 04:05:41 10° N 04:09:56 41° ENE 04:14:06 10° SE
Cosmos 1605 Rocket 3.9 04:05:54 10° NNW 04:12:06 65° W 04:18:10 10° S
PAYLOAD A 4.0 04:07:32 10° N 04:12:11 50° WNW 04:12:27 49° W
NOSS 2-1 (C) 2.9 04:12:26 80° N 04:12:26 80° N 04:16:09 10° NE
Cosmos 2219 Rocket 3.8 04:14:45 19° NW 04:14:51 19° NW 04:18:48 10° N
Cosmos 1408 Rocket 4.1 04:10:50 10° NNW 04:16:24 39° SSW 04:19:22 10° S
NOSS 2-1 (D) 2.9 04:16:24 75° NW 04:16:24 75° NW 04:20:12 10° NE
ATLAS 2AS CENTAUR R/B 4.2 04:10:29 13° NW 04:16:39 33° NNE 04:23:17 10° E
GEOS 3 Rocket 3.6 04:12:57 10° NE 04:18:17 86° SE 04:21:26 26° SW
CZ-4B R/B 3.9 04:14:48 10° N 04:19:03 74° WNW 04:21:31 25° SSW
Cosmos 2221 2.8 04:17:31 10° S 04:21:44 66° E 04:26:01 10° NNE
Cosmos 1153 Rocket 4.3 04:18:02 10° NNW 04:24:13 79° W 04:30:19 10° S
ADEOS 4.0 04:19:31 10° N 04:24:20 38° WNW 04:25:00 36° W
STARLINK-1170 3.7 04:27:03 35° NNE 04:27:03 35° NNE 04:29:05 10° ENE
Cosmos 1869 4.4 04:23:00 10° SSE 04:26:50 46° E 04:30:39 10° NNE
Cosmos 2360 Rocket 4.4 04:26:59 10° NNW 04:27:28 10° NNW 04:27:56 10° NNW
COSMOS 2428 4.4 04:28:27 17° NW 04:29:09 17° NNW 04:32:51 10° N
Meteor 2-10 Rocket 3.8 04:27:19 31° WSW 04:29:23 45° WNW 04:34:23 10° N
SKYMED 3 4.4 04:25:54 10° S 04:30:14 75° WSW 04:34:36 10° NNW
Cosmos 1943 Rocket 2.1 04:31:14 11° NW 04:36:28 60° WSW 04:41:51 10° S
Cosmos 1238 Rocket 4.4 04:32:11 10° N 04:38:31 60° ENE 04:44:00 10° SSE
Cosmos 1727 Rocket 3.9 04:33:55 10° SSW 04:40:07 75° W 04:46:19 10° N
Lacrosse 5 2.0 04:38:34 29° WNW 04:40:57 56° SW 04:45:54 10° SE
STARLINK-1162 3.5 04:40:54 39° NW 04:41:30 45° N 04:44:32 10° ENE
STARLINK-1157 3.5 04:42:33 38° NW 04:43:13 45° N 04:46:16 10° ENE
ADEOS Rocket 3.6 04:37:32 10° SSE 04:43:42 66° ENE 04:50:36 10° N
Cosmos 482 Debris 3.8 04:44:58 36° ESE 04:44:58 36° ESE 04:46:11 10° ESE
SL-16 R/B 2.5 04:41:35 24° WSW 04:44:39 46° NW 04:50:08 10° NNE
STARLINK-1159 3.5 04:44:29 36° NW 04:45:14 44° N 04:48:16 10° ENE
CZ-2C R/B 3.2 04:40:57 10° N 04:45:34 33° WNW 04:47:46 23° WSW
STARLINK-1171 3.5 04:46:21 35° NW 04:47:11 44° N 04:50:13 10° ENE
STARLINK-1179 3.2 04:47:55 35° NNW 04:48:13 37° N 04:50:39 10° ENE
Cosmos 2173 Rocket 4.0 04:42:17 10° N 04:48:40 86° W 04:54:54 10° S
STARLINK-1176 3.2 04:48:29 35° NNW 04:48:49 37° N 04:51:15 10° ENE
STARLINK-1155 3.5 04:48:08 33° NW 04:49:02 44° N 04:52:05 10° ENE
STARLINK-1153 3.4 04:49:50 33° NW 04:50:36 41° N 04:53:25 10° ENE
STARLINK-1180 3.4 04:50:03 33° NW 04:50:50 42° N 04:53:39 10° ENE
STARLINK-1166 3.5 04:50:07 32° NW 04:51:07 44° N 04:54:09 10° ENE
STARLINK-1174 3.4 04:50:31 32° NW 04:51:19 41° N 04:54:08 10° ENE
STARLINK-1139 3.4 04:50:44 32° NW 04:51:33 41° N 04:54:22 10° ENE
STARLINK-1133 3.5 04:50:55 32° NW 04:51:45 41° N 04:54:33 10° ENE
STARLINK-1151 3.4 04:51:10 32° NW 04:52:00 41° N 04:54:49 10° ENE
STARLINK-1160 3.5 04:51:48 32° NW 04:52:39 41° N 04:55:28 10° ENE
STARLINK-1161 3.5 04:52:01 31° NW 04:52:53 41° N 04:55:42 10° ENE
STARLINK-1165 3.5 04:51:54 30° NW 04:52:59 44° N 04:56:02 10° ENE
STARLINK-1145 3.5 04:52:14 31° NW 04:53:07 41° N 04:55:56 10° ENE
STARLINK-1172 3.5 04:52:25 31° NW 04:53:18 41° N 04:56:08 10° ENE
Cosmos 1805 Rocket 3.5 04:49:06 10° N 04:53:27 85° ENE 04:57:48 10° S
Cosmos 407 Rocket 3.8 04:48:26 10° SSW 04:53:44 75° ESE 04:59:02 10° NNE
STARLINK-1182 3.5 04:52:54 31° NW 04:53:48 41° N 04:56:37 10° ENE
STARLINK-1164 3.5 04:53:06 31° NW 04:54:01 41° N 04:56:50 10° ENE
STARLINK-1168 3.5 04:53:18 30° NW 04:54:13 41° N 04:57:02 10° ENE
SKYMED 2 3.9 04:50:11 10° S 04:54:19 43° W 04:58:30 10° NNW
TELKOM 3 2.4 04:54:11 71° W 04:54:22 89° N 04:56:28 10° E
STARLINK-1183 3.5 04:53:58 30° NW 04:54:55 41° N 04:57:43 10° ENE
STARLINK-1169 3.5 04:53:45 29° NW 04:54:55 44° N 04:57:57 10° ENE
STARLINK-1181 3.5 04:54:10 30° NW 04:55:07 41° N 04:57:56 10° ENE
STARLINK-1196 3.5 04:54:49 29° NW 04:55:49 41° N 04:58:37 10° ENE
FENGYUN 3A 3.6 04:50:38 10° NNE 04:56:05 79° WNW 05:01:32 10° SSW
STARLINK-1186 3.5 04:55:16 29° NW 04:56:16 41° N 04:59:05 10° ENE
STARLINK-1185 3.5 04:55:29 29° NW 04:56:29 41° N 04:59:18 10° ENE
STARLINK-1175 3.5 04:55:42 29° NW 04:56:44 41° N 04:59:33 10° ENE
STARLINK-1178 3.6 04:55:35 28° NW 04:56:50 44° N 04:59:53 10° ENE
STARLINK-1147 3.5 04:55:54 29° NW 04:56:56 41° N 04:59:45 10° ENE
Cosmos 2369 Rocket 2.3 04:51:23 10° NW 04:56:57 54° WSW 05:02:29 10° S
STARLINK-1146 3.5 04:56:06 28° NW 04:57:09 41° N 04:59:59 10° ENE
STARLINK-1152 3.5 04:56:20 28° NW 04:57:22 41° N 05:00:12 10° ENE
Cosmos 1862 3.9 04:53:28 10° N 04:57:25 59° ENE 05:01:19 10° SSE
STARLINK-1195 3.5 04:56:33 28° NW 04:57:37 41° N 05:00:26 10° ENE
STARLINK-1137 3.5 04:56:47 28° NW 04:57:51 41° N 05:00:41 10° ENE
STARLINK-1142 3.5 04:57:00 28° NW 04:58:05 41° N 05:00:54 10° ENE
STARLINK-1127 3.5 04:57:12 28° NW 04:58:17 41° N 05:01:06 10° ENE
STARLINK-1184 3.5 04:57:26 28° NW 04:58:32 41° N 05:01:20 10° ENE
STARLINK-1120 3.6 04:57:20 27° WNW 04:58:40 44° N 05:01:43 10° ENE
STARLINK-1193 3.5 04:57:39 27° NW 04:58:45 41° N 05:01:34 10° ENE
STARLINK-1194 3.5 04:57:51 27° NW 04:58:58 41° N 05:01:47 10° ENE
Cosmos 1603 3.8 04:54:53 10° SSW 05:00:36 85° ESE 05:06:20 10° NNE
Cosmos 1140 Rocket 4.0 04:55:32 10° S 05:00:42 63° ESE 05:05:54 10° NNE
STARLINK-1131 3.6 04:59:19 25° WNW 05:00:43 44° N 05:03:46 10° ENE
Sich 1 3.2 04:56:27 10° N 05:00:45 74° E 05:05:02 10° SSE
Cosmos 2100 Rocket 3.9 04:54:39 10° NNW 05:00:51 67° W 05:06:57 10° S
Cosmos 1500 Rocket 4.0 04:57:00 10° NNW 05:01:09 40° W 05:05:16 10° SSW
Cosmos 1238 4.0 04:58:25 10° SSW 05:01:26 70° W 05:04:31 10° N
Okean O Rocket 2.1 04:57:13 10° NNE 05:01:35 63° ESE 05:05:54 10° S
CZ-4B DEB 4.2 04:56:05 10° NNE 05:01:38 89° W 05:07:06 10° SSW
USA 215 3.8 04:55:45 10° ENE 05:01:58 48° N 05:07:20 14° WNW
STARLINK-1190 3.6 05:01:09 24° WNW 05:02:38 44° N 05:05:42 10° ENE
NOSS 2-1 (E) 3.8 05:01:57 23° W 05:03:34 36° NW 05:07:21 10° NNE
Meteor 2-3 Rocket 4.3 04:59:53 10° NNW 05:05:02 35° W 05:10:12 10° SSW
Cosmos 2263 4.2 05:01:02 10° NW 05:06:39 61° WSW 05:12:12 10° SSE
Cosmos 1943 3.4 05:02:12 10° SSW 05:07:48 77° ESE 05:13:27 10° NNE
Cosmos 2061 Rocket 4.0 05:02:22 10° N 05:08:43 86° W 05:14:57 10° S
Meteor PRIRODA 4.4 05:06:17 10° N 05:09:36 31° WNW 05:12:54 10° SW
Cosmos 1743 Rocket 4.3 05:08:49 10° NNW 05:12:31 28° W 05:16:12 10° SSW
CZ-4B R/B 3.4 05:07:59 10° NNE 05:13:22 76° ESE 05:18:38 10° S
Cosmos 1484 Rocket 3.7 05:11:26 10° N 05:14:49 28° WNW 05:18:13 10° SW
STARLINK-1124 4.4 05:12:13 10° SSW 05:14:52 32° SE 05:17:32 10° E
Cosmos 1000 Rocket 4.4 05:08:44 10° SSW 05:14:53 74° W 05:21:09 10° N
Cosmos 1190 Rocket 4.0 05:10:24 10° SSW 05:15:41 87° WNW 05:21:03 10° NNE
CZ-4B R/B 3.9 05:13:19 10° NNW 05:16:14 22° WNW 05:18:22 14° WSW
Cosmos 2333 Rocket 4.3 05:15:06 10° NW 05:16:40 11° NNW 05:18:15 10° N
ALOS 2.6 05:14:15 10° N 05:18:42 45° WNW 05:23:08 10° SW
CZ-4C R/B 3.6 05:14:51 13° WNW 05:18:59 28° NNW 05:24:39 10° NE
STARLINK-1149 3.3 05:17:26 18° WNW 05:19:05 39° N 05:21:37 10° ENE
Cosmos 1459 Rocket 4.1 05:14:11 10° NNW 05:20:08 53° W 05:26:09 10° SSW
STARLINK-1129 3.6 05:17:57 16° WNW 05:20:13 45° N 05:23:19 10° E
H-2A R/B 3.8 05:17:44 10° N 05:21:05 22° WNW 05:24:30 10° WSW
STARLINK-1094 4.5 05:18:38 10° SSW 05:21:15 30° SE 05:23:53 10° E
STARLINK-1117 4.5 05:18:51 10° SSW 05:21:28 30° SE 05:24:06 10° E
STARLINK-1078 4.5 05:19:05 10° SSW 05:21:43 30° SE 05:24:21 10° E
STARLINK-1108 4.5 05:19:18 10° SSW 05:21:55 31° SE 05:24:33 10° E
STARLINK-1134 3.6 05:19:36 16° WNW 05:21:56 45° N 05:25:02 10° E
STARLINK-1132 3.3 05:20:13 16° WNW 05:22:03 41° N 05:24:38 10° E
STARLINK-1071 4.5 05:19:31 10° SSW 05:22:08 31° SE 05:24:47 10° E
ATLAS CENTAUR R/B 2.7 05:19:22 14° W 05:22:22 27° NW 05:26:06 10° NNE
STARLINK-1110 4.5 05:19:45 10° SSW 05:22:23 31° SE 05:25:02 10° E
STARLINK-1122 4.5 05:20:11 10° SSW 05:22:50 31° SE 05:25:29 10° E
STARLINK-1126 4.4 05:20:24 10° SSW 05:23:02 31° SE 05:25:42 10° E
STARLINK-1082 4.4 05:20:38 10° SSW 05:23:17 31° SE 05:25:56 10° E
STARLINK-1100 4.4 05:20:51 10° SSW 05:23:30 31° SE 05:26:09 10° E
Cosmos 1656 Rocket 3.7 05:17:52 10° NNW 05:23:31 68° WSW 05:29:09 10° SSE
STARLINK-1083 4.4 05:21:04 10° SSW 05:23:43 31° SE 05:26:22 10° E
STARLINK-1125 4.4 05:21:18 10° SSW 05:23:57 32° SE 05:26:37 10° E
Meteor 2-2 Rocket 4.4 05:18:08 10° SSW 05:24:04 59° WNW 05:30:03 10° N
STARLINK-1135 3.6 05:21:47 15° WNW 05:24:13 46° N 05:27:19 10° E
STARLINK-1150 3.3 05:23:03 15° WNW 05:25:00 41° N 05:27:35 10° E
STARLINK-1163 3.3 05:24:05 15° WNW 05:26:05 41° N 05:28:41 10° E
Cosmos 1725 Rocket 4.0 05:20:00 10° N 05:26:16 82° W 05:32:33 10° S
STARLINK-1141 3.6 05:23:49 14° WNW 05:26:20 46° N 05:29:27 10° E
Cosmos 1346 Rocket 4.2 05:22:45 10° N 05:26:29 40° ENE 05:30:10 10° SE
STARLINK-1173 3.3 05:25:53 14° WNW 05:27:58 42° N 05:30:34 10° E
STARLINK-1140 3.6 05:25:39 14° WNW 05:28:15 46° N 05:31:22 10° E
Cosmos 614 Rocket 4.1 05:23:19 10° SW 05:28:22 55° WNW 05:33:30 10° NNE
STARLINK-1177 3.3 05:26:26 14° WNW 05:28:32 42° N 05:31:10 10° E
STARLINK-1118 4.0 05:27:10 10° SW 05:29:34 33° SSE 05:31:57 10° E
STARLINK-1167 3.3 05:27:50 13° WNW 05:30:01 42° N 05:32:38 10° E
STARLINK-1156 3.5 05:27:35 13° WNW 05:30:16 47° N 05:33:23 10° E
Cosmos 2123 Rocket 4.1 05:25:07 10° S 05:31:28 89° W 05:37:48 10° N
STARLINK-1148 3.5 05:29:31 12° WNW 05:32:18 47° N 05:35:24 10° E
Cosmos 676 Rocket 4.2 05:27:24 10° SSW 05:32:44 82° ESE 05:38:06 10° NNE
Cosmos 1802 Rocket 4.2 05:27:13 10° NNW 05:33:26 52° W 05:39:37 10° SSW
Cosmos 1633 3.4 05:30:37 10° NNW 05:33:51 30° W 05:37:02 10° SSW
PAYLOAD B 4.3 05:28:30 10° N 05:34:00 60° WNW 05:39:27 10° SSW
Cosmos 1151 Rocket 4.0 05:30:07 10° S 05:34:17 52° E 05:38:32 10° NNE
STARLINK-1158 3.5 05:31:27 12° WNW 05:34:19 47° N 05:37:26 10° E
STARLINK-1136 3.2 05:32:38 12° WNW 05:35:00 43° N 05:37:36 10° E
Aureole 2 Rocket 3.7 05:37:52 10° WNW 05:39:56 17° WSW 05:42:03 10° SSW
NOAA 6 4.1 05:36:16 10° N 05:41:23 58° WNW 05:46:25 10° SSW
COSMO-SKYMED 1 4.1 05:40:04 10° SW 05:42:45 16° W 05:45:26 10° NW
Cosmos 1315 Rocket 4.2 05:43:01 10° SSE 05:46:48 44° E 05:50:34 10° NNE
Cosmos 921 Rocket 4.1 05:44:23 10° NW 05:48:01 25° W 05:51:35 10° SSW
Cosmos 2237 Rocket 4.1 05:46:21 10° NW 05:48:46 13° NNW 05:51:11 10° N
Cosmos 1340 2.7 05:45:04 10° NNW 05:48:51 88° ENE 05:52:37 10° SSE
Cosmos 1633 Rocket 3.1 05:45:08 10° NNW 05:49:27 61° W 05:53:46 10° S
Okean-O 4.3 05:45:27 10° NNE 05:49:40 41° E 05:53:51 10° S
Cosmos 1666 Rocket 3.8 05:45:50 10° NNW 05:50:10 50° W 05:54:25 10° SSW
Cosmos 1933 Rocket 4.3 05:46:23 10° N 05:50:42 59° ENE 05:55:00 10° SSE
